Location: Sungai Apap
(2.6167°N, 113.3833°E)
Time: 16:32:31
(UTC+00:00)

USA 215 - Pass Details

Date: 25 May 2024
Orbit: 1100 x 1107 km, 123.0° (Epoch: 22 April)

Event Time Altitude Azimuth Distance (km) Brightness Sun altitude
Rises 21:23:53 0° 14° (NNE) 3,904 6.7 -12.9°
Reaches altitude 10° 21:26:48 10° 1° (N) 2,947 5.8 -12.2°
Maximum altitude 21:31:58 26° 308° (NW) 2,024 4.4 -11.0°
Enters shadow 21:36:47 11° 257° (WSW) 2,846 4.8 -9.9°
